* Astronomy

Members Login
Username 
 
Password 
    Remember Me  
Post Info TOPIC: Asteroid 2012 UO138


L

Posts: 131433
Date:
Asteroid 2012 UO138
Permalink  
 


Orbital elements:
2012 UO138                                               Earth MOID = 0.2704 AU
Epoch 2012 Sept. 30.0 TT = JDT 2456200.5                MPC
M 332.96073              (2000.0)            P               Q
n   0.35776230     Peri.  216.00892     +0.80783645     -0.58940102
a   1.9651981      Node   180.18225     +0.50578861     +0.69096667
e   0.6600198      Incl.   54.53542     -0.30261884     -0.41853494
P   2.75           H   17.7           G   0.15           U   8

MPEC 2012 - U100



__________________
Page 1 of 1  sorted by
 
Quick Reply

Please log in to post quick replies.



Create your own FREE Forum
Report Abuse
Powered by ActiveBoard